Location: Newark
(36.0000°N, 138.0000°E)
Time: 13:53:51
(UTC+00:00)

Tiangong 2 - Pass Details

Date: 24 March 2019
Orbit: 378 x 390 km, 42.8° (Epoch: 25 April)

Event Time Altitude Azimuth Distance (km) Brightness Sun altitude
Exits shadow 19:45:50 21° 229° (SW) 929 2.5 -12.8°
Maximum altitude 19:46:16 21° 217° (SW) 910 2.5 -12.7°
Drops below altitude 10° 19:48:44 10° 165° (SSE) 1,391 3.9 -12.3°
Sets 19:51:06 0° 148° (SSE) 2,243 5.2 -11.8°
